This is the latest recevied weather packets stored in our database for station/object W0WC. If no packets are shown the sender has not sent any weather packets the latest 10 day(s).
| Time | Temp. | Humidity | Pressure | Rain* | Wind** | Luminosity | Snow |
|---|---|---|---|---|---|---|---|
| 1777034956 | 15° C | 98% | 1007.2 hPa | 0 mm | - | 56 W/m² | - |
| 1777034654 | 15° C | 98% | 1007.5 hPa | 0 mm | - | 53 W/m² | - |
| 1777034350 | 15° C | 98% | 1007.2 hPa | 0 mm | - | 48 W/m² | - |
| 1777034046 | 15° C | 98% | 1006.4 hPa | 0 mm | - | 42 W/m² | - |
| 1777033742 | 15° C | 98% | 1006.1 hPa | 0 mm | - | 36 W/m² | - |
| 1777031379 | 14.44° C | 97% | 1005.9 hPa | 0 mm | - | 2 W/m² | - |
| 1777031075 | 14.44° C | 97% | 1005.9 hPa | 0 mm | - | 2 W/m² | - |
| 1777030766 | 14.44° C | 97% | 1005.9 hPa | 0 mm | - | 2 W/m² | - |
| 1777030466 | 14.44° C | 97% | 1005.8 hPa | 0 mm | - | 1 W/m² | - |
| 1777030162 | 14.44° C | 97% | 1005.7 hPa | 0 mm | - | 1 W/m² | - |
| 1777029859 | 14.44° C | 97% | 1005.7 hPa | 0 mm | - | 0 W/m² | - |
| 1777029556 | 14.44° C | 97% | 1005.8 hPa | 0 mm | - | 0 W/m² | - |
| 1777029253 | 14.44° C | 97% | 1005.6 hPa | 0 mm | - | 0 W/m² | - |
| 1777028949 | 15° C | 97% | 1005.4 hPa | 0 mm | - | 0 W/m² | - |
| 1777028648 | 15° C | 97% | 1005.2 hPa | 0 mm | - | 0 W/m² | - |
| 1777028343 | 15° C | 97% | 1005.1 hPa | 0 mm | - | 0 W/m² | - |
| 1777028039 | 15° C | 97% | 1005 hPa | 0 mm | - | 0 W/m² | - |
| 1777027734 | 15° C | 97% | 1005 hPa | 0 mm | - | 0 W/m² | - |
| 1777027430 | 15° C | 97% | 1004.7 hPa | 0 mm | - | 0 W/m² | - |
| 1777027127 | 15° C | 97% | 1005 hPa | 0 mm | - | 0 W/m² | - |
| 1777026824 | 15° C | 97% | 1004.9 hPa | 0 mm | - | 0 W/m² | - |
| 1777026519 | 15° C | 97% | 1004.6 hPa | 0 mm | - | 0 W/m² | - |
| 1777026214 | 15° C | 97% | 1004.6 hPa | 0 mm | - | 0 W/m² | - |
| 1777025913 | 15° C | 97% | 1002.4 hPa | 0 mm | - | 0 W/m² | - |
| 1777025608 | 15° C | 97% | 1003.8 hPa | 0 mm | - | 0 W/m² | - |
* Rain latest hour (hover to see other rain measurements)
** Current wind speed in m/s (hover to see current wind gust speed)